FW5335 Weather Reports


time (UTC)temp
F
wind
direction
speed
knots
gust
knots
rain 1hr
in
rain 24hr
in
rain mn
in
humidity
%
barometer
mb
20260508024519 51 90 0.9 3.5 0.00 0.00 0.00 82 1015.2
20260508023519 51 90 0.9 2.6 0.00 0.00 0.00 81 1015.3
20260508022519 51 90 0.9 2.6 0.00 0.00 0.00 80 1015.4
20260508021519 51 90 0.9 1.7 0.00 0.00 0.00 80 1015.4
20260508020539 51 90 0.9 1.7 0.00 0.00 0.00 80 1015.3
20260508015542 51 90 1.7 3.5 0.00 0.00 0.00 79 1015.5
20260508014519 51 90 0.9 2.6 0.00 0.00 0.00 78 1015.5
20260508013518 51 0.0 0.9 0.00 0.00 0.00 78 1015.5
20260508012519 51 90 1.7 3.5 0.00 0.00 0.00 77 1015.4
20260508011520 51 68 0.9 1.7 0.00 0.00 0.00 76 1015.6
20260508010518 51 68 1.7 3.5 0.00 0.00 0.00 75 1015.3
20260508005519 51 68 1.7 2.6 0.00 0.00 0.00 74 1015.7
20260508004543 51 68 0.9 1.7 0.00 0.00 0.00 74 1015.7
20260508003544 51 0.0 1.7 0.00 0.00 0.00 73 1015.6
20260508002517 52 68 1.7 2.6 0.00 0.00 0.00 73 1015.7
20260508001518 52 68 1.7 2.6 0.00 0.00 0.00 73 1015.8
20260508000518 52 68 0.9 2.6 0.00 0.00 0.00 71 1015.9
20260507235519 52 90 1.7 2.6 0.00 0.00 0.00 71 1015.9
20260507234542 52 68 1.7 2.6 0.00 0.00 0.00 70 1015.9
20260507233559 52 68 0.9 2.6 0.00 0.00 0.00 70 1016.0
20260507232524 52 68 1.7 3.5 0.00 0.00 0.00 70 1016.1
20260507231519 52 68 1.7 3.5 0.00 0.00 0.00 70 1016.0
20260507230542 52 135 0.9 2.6 0.00 0.00 0.00 69 1016.0
20260507225518 52 135 0.9 2.6 0.00 0.00 0.00 69 1015.9
20260507224519 52 135 0.9 2.6 0.00 0.00 0.00 67 1015.8
20260507223519 53 0.0 1.7 0.00 0.00 0.00 66 1015.8
20260507222519 53 135 0.9 1.7 0.00 0.00 0.00 66 1015.9
20260507221519 52 135 0.9 2.6 0.00 0.00 0.00 66 1015.9
20260507220538 52 135 1.7 3.5 0.00 0.00 0.00 67 1016.1
20260507215525 53 135 0.9 3.5 0.00 0.00 0.00 70 1016.1
20260507214520 53 135 0.9 2.6 0.00 0.00 0.00 72 1016.2
20260507213543 52 0.0 1.7 0.00 0.00 0.00 70 1016.2
20260507212519 53 135 0.9 2.6 0.00 0.00 0.00 69 1016.1
20260507211523 53 0.0 0.0 0.00 0.00 0.00 69 1016.1
20260507210518 53 0.0 0.0 0.00 0.00 0.00 70 1016.1
20260507205519 53 135 0.9 1.7 0.00 0.00 0.00 70 1016.0
20260507204518 53 0.0 1.7 0.00 0.00 0.00 70 1015.9
20260507203523 54 135 0.9 1.7 0.00 0.00 0.00 69 1015.8
20260507202519 54 0.0 0.9 0.00 0.00 0.00 67 1015.7
20260507201518 54 0.0 0.9 0.00 0.00 0.00 64 1015.6
20260507200524 55 135 0.9 1.7 0.00 0.00 0.00 63 1015.7
20260507195517 55 135 0.9 1.7 0.00 0.00 0.00 64 1015.6
20260507194519 55 135 1.7 2.6 0.00 0.00 0.00 61 1015.4
20260507193518 55 135 0.9 2.6 0.00 0.00 0.00 62 1015.4
20260507192518 55 135 0.9 1.7 0.00 0.00 0.00 62 1015.3
20260507191518 56 135 0.9 1.7 0.00 0.00 0.00 64 1015.4
20260507190521 56 135 0.9 2.6 0.00 0.00 0.00 63 1015.4
20260507185519 56 158 0.9 1.7 0.00 0.00 0.00 63 1015.3
20260507184519 56 203 0.9 5.2 0.00 0.00 0.00 63 1015.2
20260507183519 56 203 0.9 3.5 0.00 0.00 0.00 62 1015.1
20260507182518 56 203 1.7 2.6 0.00 0.00 0.00 61 1015.3
20260507181525 57 203 2.6 4.3 0.00 0.00 0.00 60 1015.2
20260507180522 57 203 3.5 7.0 0.00 0.00 0.00 58 1015.5
20260507175518 58 203 3.5 7.0 0.00 0.00 0.00 57 1015.3
20260507174518 58 180 2.6 6.1 0.00 0.00 0.00 57 1015.3
20260507173543 58 225 3.5 7.0 0.00 0.00 0.00 56 1015.4
20260507172518 59 203 4.3 7.0 0.00 0.00 0.00 54 1015.4
20260507171518 59 203 4.3 7.0 0.00 0.00 0.00 54 1015.3
20260507170517 59 180 4.3 8.7 0.00 0.00 0.00 52 1015.2
20260507165518 60 180 3.5 7.0 0.00 0.00 0.00 52 1015.3
20260507164518 60 203 4.3 8.7 0.00 0.00 0.00 52 1015.5
20260507163518 60 180 3.5 7.8 0.00 0.00 0.00 50 1015.4
20260507162518 61 180 4.3 11.3 0.00 0.00 0.00 50 1015.4
20260507161543 61 135 5.2 8.7 0.00 0.00 0.00 49 1015.5
20260507160518 61 203 3.5 7.8 0.00 0.00 0.00 51 1015.5
20260507155518 61 203 4.3 7.8 0.00 0.00 0.00 53 1015.5
20260507154520 61 203 3.5 6.1 0.00 0.00 0.00 52 1015.7
20260507153520 61 180 5.2 10.4 0.00 0.00 0.00 49 1015.6
20260507152519 62 203 5.2 12.2 0.00 0.00 0.00 52 1015.6
20260507151518 62 203 5.2 8.7 0.00 0.00 0.00 50 1015.7
20260507150520 62 203 6.1 12.2 0.00 0.00 0.00 49 1015.7
20260507145522 62 203 7.0 11.3 0.00 0.00 0.00 47 1015.8
20260507144520 62 203 7.0 12.2 0.00 0.00 0.00 45 1015.7
20260507143544 64 203 7.8 14.8 0.00 0.00 0.00 46 1015.8
20260507142528 63 203 6.1 10.4 0.00 0.00 0.00 51 1015.9
20260507141520 62 203 5.2 10.4 0.00 0.00 0.00 51 1015.9
20260507140525 62 203 5.2 8.7 0.00 0.00 0.00 50 1016.2
20260507135539 61 180 3.5 7.0 0.00 0.00 0.00 54 1016.0
20260507134519 61 203 5.2 10.4 0.00 0.00 0.00 52 1016.1
20260507133520 60 180 3.5 6.1 0.00 0.00 0.00 59 1015.9
20260507132540 60 203 3.5 7.8 0.00 0.00 0.00 58 1016.0
20260507131545 60 203 4.3 8.7 0.00 0.00 0.00 57 1016.1
20260507130520 60 203 4.3 8.7 0.00 0.00 0.00 57 1016.2
20260507125519 59 203 5.2 9.6 0.00 0.00 0.00 58 1016.2
20260507124541 60 203 5.2 9.6 0.00 0.00 0.00 56 1016.2
20260507123520 60 203 6.1 11.3 0.00 0.00 0.00 55 1016.2
20260507122519 60 180 5.2 11.3 0.00 0.00 0.00 56 1016.3
20260507121518 60 203 5.2 11.3 0.00 0.00 0.00 54 1016.3
20260507120520 60 180 6.1 11.3 0.00 0.00 0.00 56 1016.1
20260507115519 60 203 5.2 9.6 0.00 0.00 0.00 60 1016.1
20260507114520 59 203 4.3 9.6 0.00 0.00 0.00 63 1016.0
20260507113520 59 180 4.3 8.7 0.00 0.00 0.00 64 1016.2
20260507112519 58 203 5.2 10.4 0.00 0.00 0.00 63 1016.2
20260507111519 59 180 5.2 11.3 0.00 0.00 0.00 62 1016.2
20260507110521 59 180 4.3 10.4 0.00 0.00 0.00 63 1016.3
20260507105519 59 203 4.3 9.6 0.00 0.00 0.00 64 1016.4
20260507104540 59 203 4.3 8.7 0.00 0.00 0.00 66 1016.4
20260507103520 58 203 4.3 9.6 0.00 0.00 0.00 66 1016.3
20260507102519 58 180 5.2 9.6 0.00 0.00 0.00 65 1016.4
20260507101519 59 180 4.3 10.4 0.00 0.00 0.00 66 1016.5
20260507100519 58 180 4.3 8.7 0.00 0.00 0.00 68 1016.3
20260507095538 57 203 5.2 8.7 0.00 0.00 0.00 69 1016.2
20260507094519 58 180 3.5 7.8 0.00 0.00 0.00 69 1016.2
20260507093538 58 180 2.6 8.7 0.00 0.00 0.00 68 1016.3
20260507092519 58 203 2.6 6.1 0.00 0.00 0.00 68 1016.1
20260507091539 58 203 3.5 8.7 0.00 0.00 0.00 67 1016.3
20260507090518 57 180 3.5 7.0 0.00 0.00 0.00 70 1016.4
20260507085519 57 180 1.7 3.5 0.00 0.00 0.00 72 1016.5
20260507084519 57 113 2.6 7.0 0.00 0.00 0.00 71 1016.2
20260507083519 56 180 2.6 4.3 0.00 0.00 0.00 74 1016.4
20260507082519 55 203 2.6 4.3 0.00 0.00 0.00 76 1016.1
20260507081539 55 180 1.7 4.3 0.00 0.00 0.00 76 1016.4
20260507080539 54 113 0.9 3.5 0.00 0.00 0.00 78 1016.3
20260507075539 53 113 1.7 2.6 0.00 0.00 0.00 78 1016.3
20260507074519 52 68 1.7 3.5 0.00 0.00 0.00 79 1016.1
20260507073520 52 68 0.9 4.3 0.00 0.00 0.00 79 1016.0
20260507072539 51 68 2.6 3.5 0.00 0.00 0.00 79 1016.0
20260507071519 51 45 0.9 1.7 0.00 0.00 0.00 80 1016.0
20260507070524 50 45 0.9 2.6 0.00 0.00 0.00 81 1015.9
20260507065519 50 68 1.7 3.5 0.00 0.00 0.00 81 1015.8
20260507064520 49 68 1.7 3.5 0.00 0.00 0.00 82 1015.7
20260507063520 48 68 1.7 2.6 0.00 0.00 0.00 82 1015.7
20260507062519 48 45 0.9 2.6 0.00 0.00 0.00 83 1015.6
20260507061519 47 45 0.9 2.6 0.00 0.00 0.00 84 1015.6
20260507060534 47 45 0.9 1.7 0.00 0.00 0.00 84 1015.8
20260507055520 46 0.0 0.0 0.00 0.00 0.00 85 1015.8
20260507054520 46 0.0 0.0 0.00 0.00 0.00 85 1015.7
20260507053519 46 0.0 0.0 0.00 0.00 0.00 85 1015.7
20260507052519 46 0.0 0.0 0.00 0.00 0.00 84 1015.5
20260507051539 46 0.0 0.0 0.00 0.00 0.00 84 1015.5
20260507050539 46 0.0 0.0 0.00 0.00 0.00 83 1015.5
20260507045519 46 0.0 1.7 0.00 0.00 0.00 83 1015.5
20260507044603 46 45 0.9 1.7 0.00 0.00 0.00 83 1015.3
20260507043520 46 68 1.7 3.5 0.00 0.00 0.00 83 1015.2
20260507042539 46 68 1.7 3.5 0.00 0.00 0.00 82 1015.2
20260507041520 47 68 0.9 3.5 0.00 0.00 0.00 82 1015.2
20260507040519 47 90 0.9 3.5 0.00 0.00 0.00 82 1015.2
20260507035517 47 90 1.7 3.5 0.00 0.00 0.00 81 1015.2
20260507034519 47 90 2.6 4.3 0.00 0.00 0.00 81 1015.1
20260507033519 48 90 2.6 4.3 0.00 0.00 0.00 81 1015.1
20260507032518 48 113 1.7 5.2 0.00 0.00 0.00 81 1015.1
20260507031524 48 90 2.6 4.3 0.00 0.00 0.00 81 1015.1
20260507030538 48 68 2.6 5.2 0.00 0.00 0.00 82 1015.1
20260507025519 48 90 1.7 2.6 0.00 0.00 0.00 82 1015.3